Retour au catalogue

ALEXIS

ActifScienceLEO
NORAD 22638·PAYLOAD·🇺🇸 United States

Lancé Apr 25, 1993 depuis Vandenberg Space Force Base

Loading…

Prochains Passages (prochaines 24 heures)

TLE

FraisSource: Space-Track

Époque: Sep 14, 2026, 00:04 UTC

1 22638U 93026A   26257.00324714  .00000046  00000-0  37093-4 0  9990
2 22638  69.9190  93.7511 0057609  34.2400 326.2418 14.33690969122891

Suivez ALEXIS en temps réel avec AllMySat

Download on the App Store